Regional Weather Roundup
Issued by NWS

Home | Current Version | Previous Version | Graphics & Text | Print | Product List | Glossary On
Versions: 1 2 3 4 5 6 7 8 9 10 11 12 13 14 15 16 17 18 19 20 21 22 23 24 25 26 27 28 29 30 31 32 33 34 35 36 37 38 39 40 41 42 43 44 45 46 47 48 49 50
000
ASUS43 KMKX 071200
RWRWI

WISCONSIN REGIONAL WEATHER ROUNDUP
NATIONAL WEATHER SERVICE MILWAUKEE/SULLIVAN WI
600 AM CST WED DEC 07 2016

NOTE: "FAIR" INDICATES FEW OR NO CLOUDS BELOW 12,000 FEET WITH NO
SIGNIFICANT WEATHER AND/OR OBSTRUCTIONS TO VISIBILITY.

WIZ001-002-006>008-014>016-023>028-071300-
NORTHWEST WISCONSIN

CITY           SKY/WX    TMP DP  RH WIND       PRES   REMARKS
SUPERIOR ARPT  MOCLDY    19  12  76 SW15G22   29.73R WCI   5
ASHLAND        CLOUDY    20  12  71 SW20G29   29.72R WCI   4
6HR MIN TEMP:  20; 6HR MAX TEMP:  21; 6HR PCP: TRACE;

HAYWARD        LGT SNOW  17  10  74 SW14G22   29.78R WCI   3
6HR MIN TEMP:  17; 6HR MAX TEMP:  19; 6HR PCP: TRACE;

SIREN          FLURRIES  17  10  76 W17G26    29.84R WCI   1
CUMBERLAND     FLURRIES  18  10  73 W21G28    29.83R WCI   1
RICE LAKE      FLURRIES  18  11  74 SW22G30   29.87R WCI   0
6HR MIN TEMP:  18; 6HR MAX TEMP:  20;

CHETEK         FLURRIES  18  11  76 MISG      29.86R
LADYSMITH      LGT SNOW  18  13  80 SW13G21   29.83R WCI   5
6HR MIN TEMP:  18; 6HR MAX TEMP:  20;

EAU CLAIRE     NOT AVBL
MENOMONIE      FLURRIES  17  11  75 SW24G30   29.93R WCI  -1
6HR MIN TEMP:  17; 6HR MAX TEMP:  19;

NEW RICHMOND   FLURRIES  18  10  73 W23       29.90R WCI   0
OSCEOLA        FLURRIES  19  12  74 W20G28    29.94R WCI   2
$$

WIZ003>005-009-010-017-018-071300-
NORTH CENTRAL WISCONSIN

CITY           SKY/WX    TMP DP  RH WIND       PRES   REMARKS
MANITOWISH WTR LGT SNOW  17  13  86 SW18G26   29.68R WCI   0
ARBOR VITAE    LGT SNOW  19  15  82 SW10G16   29.71R WCI   8
WOODRUFF       LGT SNOW  19  15  82 SW10G16   29.71R WCI   8
RHINELANDER    LGT SNOW  17  12  80 SW17G29   29.74R WCI   1
6HR MIN TEMP:  17; 6HR MAX TEMP:  20; 6HR PCP: TRACE;

EAGLE RIVER    LGT SNOW  17  11  78 SW18      29.70R WCI   1
LAND O LAKES   LGT SNOW  19  14  81 W10G21    29.68R WCI   7
PHILLIPS       LGT SNOW  17  13  85 SW14G26   29.75R WCI   2
6HR MIN TEMP:  17; 6HR MAX TEMP:  18;

TOMAHAWK       LGT SNOW  16  11  82 SW8G17    29.78R WCI   5
MEDFORD        LGT SNOW  15  10  81 SW17G26   29.81R WCI  -1
MERRILL        LGT SNOW  17  12  81 W16G24    29.82R WCI   1
6HR MIN TEMP:  17; 6HR MAX TEMP:  20;

$$

WIZ029-030-035-036-043>047-071300-
CENTRAL WISCONSIN

CITY           SKY/WX    TMP DP  RH WIND       PRES   REMARKS
WAUSAU         FLURRIES  17  11  77 W14G26    29.84R WCI   3
6HR MIN TEMP:  17; 6HR MAX TEMP:  21; 6HR PCP: TRACE;

MOSINEE        CLOUDY    18  14  86 SW21G31   29.86R WCI   1
MARSHFIELD     FLURRIES  16  10  77 W20G26    29.85R WCI  -1
6HR MIN TEMP:  16; 6HR MAX TEMP:  20; 6HR PCP: TRACE;

STEVENS POINT  CLOUDY    17  11  78 W13       29.88R WCI   3
WAUPACA        PTCLDY    21  14  73 SW13G18   29.90R WCI   9
6HR MIN TEMP:  21; 6HR MAX TEMP:  27;

WAUTOMA        CLEAR     19  13  77 SW12G20   29.92R WCI   7
6HR MIN TEMP:  19; 6HR MAX TEMP:  25; 6HR PCP:  0.04;

WISC RAPIDS    MOCLDY    18  12  77 W14G30    29.92R WCI   4
6HR MIN TEMP:  18; 6HR MAX TEMP:  23;

CAMP DOUGLAS   NOT AVBL
$$

WIZ011>013-019>022-031-037>040-048>050-071300-
NORTHEAST WISCONSIN

CITY           SKY/WX    TMP DP  RH WIND       PRES   REMARKS
ANTIGO         FLURRIES  16  12  84 W18G26    29.78R WCI   0
SHAWANO        CLOUDY    23  14  70 W13G21    29.86R WCI  11
6HR MIN TEMP:  23; 6HR MAX TEMP:  28;

OCONTO         CLOUDY    23  13  67 W16G24    29.83R WCI   9
STURGEON BAY   CLOUDY    24  16  71 W17G28    29.83R WCI  11
6HR MIN TEMP:  24; 6HR MAX TEMP:  27; 6HR PCP:  0.14;

GREEN BAY      PTCLDY    24  16  71 W21G29    29.87R WCI   9
6HR MIN TEMP:  24; 6HR MAX TEMP:  29; 6HR PCP: TRACE;

MANITOWOC      NOT AVBL
APPLETON       MOCLDY    19  12  73 SW18G24   29.87R WCI   4
CLINTONVILLE   CLOUDY    21  14  73 W17       29.87R WCI   7
OSHKOSH        PTCLDY    21  13  71 W15G25    29.91R WCI   8
6HR MIN TEMP:  21; 6HR MAX TEMP:  25;

$$

WIZ032>034-041-042-053>061-071300-
SOUTHWEST WISCONSIN

CITY           SKY/WX    TMP DP  RH WIND       PRES   REMARKS
LA CROSSE      CLOUDY    19  11  70 W12       30.03R WCI   7
6HR MIN TEMP:  19; 6HR MAX TEMP:  23; 6HR PCP: TRACE;

SPARTA         CLOUDY    18  12  79 W9G20     29.98R WCI   6
VIROQUA        CLOUDY    15  10  82 W15G22    29.98R WCI   0
6HR MIN TEMP:  15; 6HR MAX TEMP:  20;

BOSCOBEL       MIX PCPN  20  11  68 W16G22    30.06R WCI   6
6HR MIN TEMP:  20; 6HR MAX TEMP:  25; 6HR PCP: TRACE;

PRAIRIE DU CHI FLURRIES  19  10  68 W12G20    30.08R WCI   7
PLATTEVILLE    MOCLDY    20  15  81 W13       30.04R WCI   7
$$

WIZ056-057-062-063-064-067-068-071300-
SOUTH CENTRAL WISCONSIN

CITY           SKY/WX    TMP DP  RH WIND       PRES   REMARKS
REEDSBURG      MOCLDY    18  13  79 SW14G20   29.99R WCI   4
6HR MIN TEMP:  18; 6HR MAX TEMP:  24;

BARABOO/DELLS  MOCLDY    19  13  77 SW16      29.96R WCI   5
LONE ROCK      NOT AVBL
MINERAL POINT  CLOUDY    21  18  86 W23G29    30.00R WCI   5
MADISON        MOCLDY    20  13  74 SW7       30.00R WCI  11
6HR MIN TEMP:  20; 6HR MAX TEMP:  24;

MIDDLETON      NOT AVBL
WATERTOWN      PTCLDY    21  16  80 SW12G20   29.97R WCI   9
MONROE         CLOUDY    21  16  79 W23       30.00S WCI   5
JANESVILLE     CLOUDY    23  18  80 W13G20    30.01S WCI  11
$$

WIZ051-052-058>065-066-070>072-071300-
SOUTHEAST WISCONSIN

CITY           SKY/WX    TMP DP  RH WIND       PRES   REMARKS
MILWAUKEE      MOCLDY    24  14  65 W14G22    29.97R WCI  12
6HR MIN TEMP:  24; 6HR MAX TEMP:  28;

WAUKESHA       PTCLDY    19  14  79 W16G24    29.98R WCI   5
MILWAUKEE/TIMM PTCLDY    23  14  68 W18G24    29.97R WCI   9
RACINE         MOCLDY    23  14  68 W15G26    30.00R WCI  10
6HR MIN TEMP:  23; 6HR MAX TEMP:  27;

BURLINGTON     CLOUDY    22  16  76 W13G25    30.00S WCI  10
KENOSHA        CLOUDY    23  16  74 W15G25    29.99R WCI  10
6HR MIN TEMP:  23; 6HR MAX TEMP:  26;

FOND DU LAC    MOCLDY    22  13  68 W12G21    29.93R WCI  10
6HR MIN TEMP:  22; 6HR MAX TEMP:  26;

SHEBOYGAN      PTCLDY    23  15  71 W20G33    29.90R WCI   8
6HR MIN TEMP:  23; 6HR MAX TEMP:  27;

WEST BEND      CLOUDY    21  18  86 W15G22    29.94R WCI   8
JUNEAU         CLOUDY    20  15  78 SW21G26   29.96S WCI   4
$$

LSZ147-162-071300-
LAKE SUPERIOR

STATION/POSITION TIME  TEMP    WIND        PRES    WAVE
                       AIR SEA DIR/SP/G            HT/PER
                 (UTC) (F)     (DEG/KT/KT) (MB)    (FT/S)
DEVILS ISLAND    1100   26     250/ 31/ 38 1003.8R
PORT WING        1130   22     240/ 14/ 21 1006.1R
SAXON HARBOR     1130   22     210/  9/ 19 1006.1R
$$

LMZ867-665-643>646-071300-
LAKE MICHIGAN

STATION/POSITION TIME  TEMP    WIND        PRES    WAVE
                       AIR SEA DIR/SP/G            HT/PER
                 (UTC) (F)     (DEG/KT/KT) (MB)    (FT/S)
CHAMBERS ISLAND  1140   25     230/ 12/ 22 1008.8R
NORTHPORT PIER   1140   26     240/  9/ 20 1008.8R
SISTER BAY       1038   28     300/ 23/ 27   N/A
ALGOMA LAKESHORE 1021          280/ 19/ 26   N/A
KEWAUNEE LAKESHO 1130   24     290/ 16/ 28 1010.5R
SHEBOYGAN LAKESH 1100   24     250/ 19/ 23 1013.0R
PORT WASHINGTON  1140   23     260/ 13/ 23 1014.9R
MILWAUKEE LAKESH 1130   24     250/ 16/ 20   N/A
KENOSHA   LAKESH 1100   25     260/ 17/ 25 1015.9
$$

TC  - TEMPERATURE IN CELSIUS
VSB - VISIBILITY IN STATUTE MILES
WCI - WIND CHILL INDEX
HX  - HEAT INDEX





USA.gov is the U.S. government's official web portal to all federal, state and local government web resources and services.